Location: Bratsk-Energetik
(56.3300°N, 101.7600°E)
Time: 22:55:16
(UTC+08:00)

ISS - Pass Details

Date: 11 May 2021
Orbit: 417 x 422 km, 51.6° (Epoch: 12 June)

Event Time Altitude Azimuth Distance (km) Brightness Sun altitude
Exits shadow 03:24:44 11° 251° (WSW) 1,463 -1.5 -10.6°
Maximum altitude 03:27:45 36° 184° (S) 682 -3.1 -10.3°
Drops below altitude 10° 03:30:54 10° 116° (ESE) 1,508 -0.8 -10.1°
Sets 03:33:06 0° 108° (ESE) 2,373 0.3 -9.9°
